Time,TemperatureF,DewpointF,PressureIn,WindDirection,WindDirectionDegrees,WindSpeedMPH,WindSpeedGustMPH,Humidity,HourlyPrecipIn,Conditions,Clouds,dailyrainin,SoftwareType,DateUTC
2013-01-23 00:00:00,12.8,-1.1,28.34,WNW,292,7.0,15.0,53,0.00,,,0.00,Weather View 32 v70,2013-01-23 05:00:00,
2013-01-23 00:01:00,12.9,-0.6,28.34,WNW,292,8.0,15.0,54,0.00,,,0.00,Weather View 32 v70,2013-01-23 05:01:00,
2013-01-23 00:03:00,12.8,-1.1,28.34,NW,315,6.0,15.0,53,0.00,,,0.00,Weather View 32 v70,2013-01-23 05:03:00,
2013-01-23 00:08:00,12.7,-1.6,28.34,WNW,292,7.0,15.0,52,0.00,,,0.00,Weather View 32 v70,2013-01-23 05:08:00,
2013-01-23 00:13:00,12.5,-1.8,28.34,NW,315,4.0,15.0,52,0.00,,,0.00,Weather View 32 v70,2013-01-23 05:13:00,
2013-01-23 00:18:00,12.4,-1.5,28.34,WNW,292,3.0,15.0,53,0.00,,,0.00,Weather View 32 v70,2013-01-23 05:18:00,
2013-01-23 00:23:00,12.1,-2.2,28.34,WNW,292,4.0,15.0,52,0.00,,,0.00,Weather View 32 v70,2013-01-23 05:23:00,
2013-01-23 00:28:00,11.9,-1.9,28.34,WNW,292,5.0,15.0,53,0.00,,,0.00,Weather View 32 v70,2013-01-23 05:28:00,
2013-01-23 00:33:00,11.8,-2.0,28.34,WNW,292,7.0,15.0,53,0.00,,,0.00,Weather View 32 v70,2013-01-23 05:33:00,
2013-01-23 00:38:00,12.1,-1.4,28.35,WNW,292,6.0,15.0,54,0.00,,,0.00,Weather View 32 v70,2013-01-23 05:38:00,
2013-01-23 00:43:00,12.2,-1.7,28.35,NW,315,5.0,15.0,53,0.00,,,0.00,Weather View 32 v70,2013-01-23 05:43:00,
2013-01-23 00:48:00,12.3,-2.4,28.35,WNW,292,7.0,15.0,51,0.00,,,0.00,Weather View 32 v70,2013-01-23 05:48:00,
2013-01-23 00:53:00,12.2,-1.3,28.35,West,270,2.0,15.0,54,0.00,,,0.00,Weather View 32 v70,2013-01-23 05:53:00,
2013-01-23 00:59:00,11.9,-1.5,28.34,WNW,292,2.0,14.0,54,0.00,,,0.00,Weather View 32 v70,2013-01-23 05:59:00,
2013-01-23 01:04:00,11.7,-1.3,28.34,West,270,7.0,14.0,55,0.00,,,0.00,Weather View 32 v70,2013-01-23 06:04:00,
2013-01-23 01:09:00,12.1,-1.8,28.34,West,270,5.0,14.0,53,0.00,,,0.00,Weather View 32 v70,2013-01-23 06:09:00,
2013-01-23 01:14:00,12.1,-1.8,28.35,WNW,292,7.0,14.0,53,0.00,,,0.00,Weather View 32 v70,2013-01-23 06:14:00,
2013-01-23 01:19:00,12.1,-1.4,28.34,West,270,8.0,14.0,54,0.00,,,0.00,Weather View 32 v70,2013-01-23 06:19:00,
2013-01-23 01:24:00,11.9,-1.5,28.34,WNW,292,4.0,14.0,54,0.00,,,0.00,Weather View 32 v70,2013-01-23 06:24:00,
2013-01-23 01:29:00,11.9,-1.5,28.34,West,270,9.0,14.0,54,0.00,,,0.00,Weather View 32 v70,2013-01-23 06:29:00,
2013-01-23 01:34:00,12.1,-2.2,28.34,NW,315,8.0,14.0,52,0.00,,,0.00,Weather View 32 v70,2013-01-23 06:34:00,
2013-01-23 01:39:00,11.9,-1.5,28.34,WNW,292,3.0,14.0,54,0.00,,,0.00,Weather View 32 v70,2013-01-23 06:39:00,
2013-01-23 01:44:00,11.9,-1.9,28.35,WNW,292,7.0,14.0,53,0.00,,,0.00,Weather View 32 v70,2013-01-23 06:44:00,
2013-01-23 01:49:00,11.9,-1.9,28.35,NW,315,11.0,14.0,53,0.00,,,0.00,Weather View 32 v70,2013-01-23 06:49:00,
2013-01-23 01:54:00,12.1,-1.4,28.35,West,270,9.0,14.0,54,0.00,,,0.00,Weather View 32 v70,2013-01-23 06:54:00,
2013-01-23 01:59:00,12.2,-1.7,28.35,West,270,9.0,14.0,53,0.00,,,0.00,Weather View 32 v70,2013-01-23 06:59:00,
2013-01-23 02:04:00,12.2,-1.7,28.35,West,270,6.0,14.0,53,0.00,,,0.00,Weather View 32 v70,2013-01-23 07:04:00,
2013-01-23 02:09:00,12.1,-1.4,28.35,West,270,12.0,14.0,54,0.00,,,0.00,Weather View 32 v70,2013-01-23 07:09:00,
2013-01-23 02:14:00,12.1,-1.8,28.35,WNW,292,4.0,14.0,53,0.00,,,0.00,Weather View 32 v70,2013-01-23 07:14:00,
2013-01-23 02:19:00,11.8,-1.3,28.35,NW,315,6.0,14.0,55,0.00,,,0.00,Weather View 32 v70,2013-01-23 07:19:00,
2013-01-23 02:24:00,11.7,-1.3,28.35,WNW,292,5.0,14.0,55,0.00,,,0.00,Weather View 32 v70,2013-01-23 07:24:00,
2013-01-23 02:29:00,11.6,-1.8,28.36,NW,315,9.0,15.0,54,0.00,,,0.00,Weather View 32 v70,2013-01-23 07:29:00,
2013-01-23 02:34:00,11.8,-1.6,28.36,WNW,292,6.0,15.0,54,0.00,,,0.00,Weather View 32 v70,2013-01-23 07:34:00,
2013-01-23 02:39:00,11.8,-1.6,28.36,West,270,9.0,15.0,54,0.00,,,0.00,Weather View 32 v70,2013-01-23 07:39:00,
2013-01-23 02:44:00,11.9,-1.9,28.35,WNW,292,8.0,15.0,53,0.00,,,0.00,Weather View 32 v70,2013-01-23 07:44:00,
2013-01-23 02:49:00,11.9,-1.5,28.36,WNW,292,7.0,15.0,54,0.00,,,0.00,Weather View 32 v70,2013-01-23 07:49:00,
2013-01-23 02:54:00,11.7,-1.7,28.36,NW,315,6.0,15.0,54,0.00,,,0.00,Weather View 32 v70,2013-01-23 07:54:00,
2013-01-23 02:59:00,11.7,-1.3,28.36,West,270,11.0,15.0,55,0.00,,,0.00,Weather View 32 v70,2013-01-23 07:59:00,
2013-01-23 03:04:00,11.8,-1.6,28.36,West,270,6.0,15.0,54,0.00,,,0.00,Weather View 32 v70,2013-01-23 08:04:00,
2013-01-23 03:09:00,11.8,-2.0,28.36,West,270,7.0,15.0,53,0.00,,,0.00,Weather View 32 v70,2013-01-23 08:09:00,
2013-01-23 03:14:00,11.7,-2.1,28.36,West,270,7.0,15.0,53,0.00,,,0.00,Weather View 32 v70,2013-01-23 08:14:00,
2013-01-23 03:29:00,11.7,-1.7,28.36,West,270,4.0,14.0,54,0.00,,,0.00,Weather View 32 v70,2013-01-23 08:29:00,
2013-01-23 03:34:00,11.6,-1.8,28.35,West,270,7.0,14.0,54,0.00,,,0.00,Weather View 32 v70,2013-01-23 08:34:00,
2013-01-23 03:39:00,11.6,-1.4,28.35,West,270,8.0,14.0,55,0.00,,,0.00,Weather View 32 v70,2013-01-23 08:39:00,
2013-01-23 03:44:00,11.6,-1.8,28.35,WNW,292,7.0,14.0,54,0.00,,,0.00,Weather View 32 v70,2013-01-23 08:44:00,
2013-01-23 03:49:00,11.5,-1.5,28.35,West,270,7.0,14.0,55,0.00,,,0.00,Weather View 32 v70,2013-01-23 08:49:00,
2013-01-23 03:54:00,11.5,-1.5,28.35,West,270,8.0,14.0,55,0.00,,,0.00,Weather View 32 v70,2013-01-23 08:54:00,
2013-01-23 03:59:00,11.5,-1.5,28.35,West,270,5.0,14.0,55,0.00,,,0.00,Weather View 32 v70,2013-01-23 08:59:00,
2013-01-23 04:05:00,11.4,-1.6,28.35,WNW,292,9.0,13.0,55,0.00,,,0.00,Weather View 32 v70,2013-01-23 09:05:00,
2013-01-23 04:10:00,11.3,-1.7,28.35,WNW,292,6.0,13.0,55,0.00,,,0.00,Weather View 32 v70,2013-01-23 09:10:00,
2013-01-23 04:15:00,11.5,-1.5,28.36,West,270,8.0,16.0,55,0.00,,,0.00,Weather View 32 v70,2013-01-23 09:15:00,
2013-01-23 04:20:00,11.6,-1.8,28.35,West,270,4.0,16.0,54,0.00,,,0.00,Weather View 32 v70,2013-01-23 09:20:00,
2013-01-23 04:25:00,11.4,-1.6,28.35,West,270,6.0,16.0,55,0.00,,,0.00,Weather View 32 v70,2013-01-23 09:25:00,
2013-01-23 04:30:00,11.3,-1.7,28.35,WNW,292,9.0,16.0,55,0.00,,,0.00,Weather View 32 v70,2013-01-23 09:30:00,
2013-01-23 04:35:00,11.5,-1.5,28.35,West,270,4.0,16.0,55,0.00,,,0.00,Weather View 32 v70,2013-01-23 09:35:00,
2013-01-23 04:40:00,11.3,-1.7,28.36,WNW,292,6.0,16.0,55,0.00,,,0.00,Weather View 32 v70,2013-01-23 09:40:00,
2013-01-23 04:45:00,11.3,-2.1,28.36,West,270,11.0,16.0,54,0.00,,,0.00,Weather View 32 v70,2013-01-23 09:45:00,
2013-01-23 04:50:00,11.5,-2.3,28.35,WNW,292,5.0,16.0,53,0.00,,,0.00,Weather View 32 v70,2013-01-23 09:50:00,
2013-01-23 04:55:00,11.4,-2.0,28.35,West,270,10.0,16.0,54,0.00,,,0.00,Weather View 32 v70,2013-01-23 09:55:00,
2013-01-23 05:00:00,11.4,-2.4,28.36,WNW,292,7.0,16.0,53,0.00,,,0.00,Weather View 32 v70,2013-01-23 10:00:00,
2013-01-23 05:05:00,11.4,-2.0,28.36,WNW,292,11.0,16.0,54,0.00,,,0.00,Weather View 32 v70,2013-01-23 10:05:00,
2013-01-23 05:10:00,11.4,-1.6,28.36,West,270,9.0,16.0,55,0.00,,,0.00,Weather View 32 v70,2013-01-23 10:10:00,
2013-01-23 05:15:00,11.4,-2.0,28.36,WNW,292,6.0,16.0,54,0.00,,,0.00,Weather View 32 v70,2013-01-23 10:15:00,
2013-01-23 05:20:00,11.3,-1.7,28.36,West,270,5.0,14.0,55,0.00,,,0.00,Weather View 32 v70,2013-01-23 10:20:00,
2013-01-23 05:25:00,11.1,-1.9,28.36,WNW,292,5.0,14.0,55,0.00,,,0.00,Weather View 32 v70,2013-01-23 10:25:00,
2013-01-23 05:30:00,10.9,-2.5,28.36,WNW,292,7.0,14.0,54,0.00,,,0.00,Weather View 32 v70,2013-01-23 10:30:00,
2013-01-23 05:35:00,10.9,-2.5,28.36,WNW,292,4.0,13.0,54,0.00,,,0.00,Weather View 32 v70,2013-01-23 10:35:00,
2013-01-23 05:40:00,10.8,-2.6,28.36,WNW,292,4.0,13.0,54,0.00,,,0.00,Weather View 32 v70,2013-01-23 10:40:00,
2013-01-23 05:45:00,10.6,-1.6,28.36,WNW,292,1.0,13.0,57,0.00,,,0.00,Weather View 32 v70,2013-01-23 10:45:00,
2013-01-23 05:50:00,10.3,-2.3,28.36,West,270,3.0,13.0,56,0.00,,,0.00,Weather View 32 v70,2013-01-23 10:50:00,
2013-01-23 05:55:00,10.2,-2.0,28.37,WNW,292,3.0,13.0,57,0.00,,,0.00,Weather View 32 v70,2013-01-23 10:55:00,
2013-01-23 06:00:00,9.9,-2.7,28.37,NW,315,4.0,13.0,56,0.00,,,0.00,Weather View 32 v70,2013-01-23 11:00:00,
2013-01-23 06:05:00,9.9,-1.9,28.37,NW,315,4.0,13.0,58,0.00,,,0.00,Weather View 32 v70,2013-01-23 11:05:00,
2013-01-23 06:10:00,9.8,-2.8,28.37,NW,315,1.0,13.0,56,0.00,,,0.00,Weather View 32 v70,2013-01-23 11:10:00,
2013-01-23 06:15:00,9.7,-2.5,28.37,WNW,292,3.0,9.0,57,0.00,,,0.00,Weather View 32 v70,2013-01-23 11:15:00,
2013-01-23 06:20:00,9.5,-2.3,28.37,West,270,2.0,9.0,58,0.00,,,0.00,Weather View 32 v70,2013-01-23 11:20:00,
2013-01-23 06:25:00,9.7,-2.5,28.37,WNW,292,5.0,9.0,57,0.00,,,0.00,Weather View 32 v70,2013-01-23 11:25:00,
2013-01-23 06:30:00,9.9,-2.3,28.37,West,270,4.0,9.0,57,0.00,,,0.00,Weather View 32 v70,2013-01-23 11:30:00,
2013-01-23 06:35:00,9.9,-2.3,28.37,NW,315,4.0,8.0,57,0.00,,,0.00,Weather View 32 v70,2013-01-23 11:35:00,
2013-01-23 06:40:00,9.7,-2.1,28.37,WNW,292,5.0,8.0,58,0.00,,,0.00,Weather View 32 v70,2013-01-23 11:40:00,
2013-01-23 06:45:00,9.7,-1.7,28.37,West,270,6.0,9.0,59,0.00,,,0.00,Weather View 32 v70,2013-01-23 11:45:00,
2013-01-23 06:50:00,9.9,-2.3,28.38,West,270,4.0,11.0,57,0.00,,,0.00,Weather View 32 v70,2013-01-23 11:50:00,
2013-01-23 06:55:00,10.1,-1.4,28.38,West,270,2.0,11.0,59,0.00,,,0.00,Weather View 32 v70,2013-01-23 11:55:00,
2013-01-23 07:01:00,9.9,-1.9,28.38,West,270,6.0,11.0,58,0.00,,,0.00,Weather View 32 v70,2013-01-23 12:01:00,
2013-01-23 07:06:00,10.2,-2.0,28.39,West,270,2.0,11.0,57,0.00,,,0.00,Weather View 32 v70,2013-01-23 12:06:00,
2013-01-23 07:11:00,10.3,-2.3,28.39,West,270,6.0,11.0,56,0.00,,,0.00,Weather View 32 v70,2013-01-23 12:11:00,
2013-01-23 07:16:00,10.3,-1.9,28.39,West,270,7.0,11.0,57,0.00,,,0.00,Weather View 32 v70,2013-01-23 12:16:00,
2013-01-23 07:21:00,10.3,-2.3,28.39,West,270,3.0,11.0,56,0.00,,,0.00,Weather View 32 v70,2013-01-23 12:21:00,
2013-01-23 07:26:00,10.2,-2.0,28.39,West,270,9.0,11.0,57,0.00,,,0.00,Weather View 32 v70,2013-01-23 12:26:00,
2013-01-23 07:31:00,10.4,-1.4,28.39,West,270,8.0,11.0,58,0.00,,,0.00,Weather View 32 v70,2013-01-23 12:31:00,
2013-01-23 07:37:00,10.4,-1.8,28.38,West,270,6.0,11.0,57,0.00,,,0.00,Weather View 32 v70,2013-01-23 12:37:00,
2013-01-23 07:42:00,10.4,-2.2,28.38,West,270,6.0,11.0,56,0.00,,,0.00,Weather View 32 v70,2013-01-23 12:42:00,
2013-01-23 07:47:00,10.6,-2.0,28.38,West,270,4.0,11.0,56,0.00,,,0.00,Weather View 32 v70,2013-01-23 12:47:00,
2013-01-23 07:52:00,10.6,-2.0,28.38,West,270,3.0,11.0,56,0.00,,,0.00,Weather View 32 v70,2013-01-23 12:52:00,
2013-01-23 07:57:00,10.7,-1.9,28.38,West,270,3.0,11.0,56,0.00,,,0.00,Weather View 32 v70,2013-01-23 12:57:00,
2013-01-23 08:03:00,10.7,-1.9,28.38,West,270,2.0,11.0,56,0.00,,,0.00,Weather View 32 v70,2013-01-23 13:03:00,
2013-01-23 08:08:00,11.1,-0.8,28.38,West,270,3.0,11.0,58,0.00,,,0.00,Weather View 32 v70,2013-01-23 13:08:00,
2013-01-23 08:13:00,11.3,-1.0,28.38,West,270,4.0,11.0,57,0.00,,,0.00,Weather View 32 v70,2013-01-23 13:13:00,
2013-01-23 08:18:00,11.6,0.0,28.38,West,270,4.0,11.0,59,0.00,,,0.00,Weather View 32 v70,2013-01-23 13:18:00,
2013-01-23 08:23:00,11.9,-0.4,28.38,West,270,4.0,11.0,57,0.00,,,0.00,Weather View 32 v70,2013-01-23 13:23:00,
2013-01-23 08:28:00,12.3,-0.8,28.38,West,270,4.0,11.0,55,0.00,,,0.00,Weather View 32 v70,2013-01-23 13:28:00,
2013-01-23 08:33:00,12.6,-1.3,28.39,West,270,7.0,11.0,53,0.00,,,0.00,Weather View 32 v70,2013-01-23 13:33:00,
2013-01-23 08:38:00,12.9,-0.2,28.39,WNW,292,4.0,11.0,55,0.00,,,0.00,Weather View 32 v70,2013-01-23 13:38:00,
2013-01-23 08:43:00,13.2,-0.7,28.39,NW,315,6.0,11.0,53,0.00,,,0.00,Weather View 32 v70,2013-01-23 13:43:00,
2013-01-23 08:48:00,13.4,-1.4,28.39,WNW,292,11.0,13.0,51,0.00,,,0.00,Weather View 32 v70,2013-01-23 13:48:00,
2013-01-23 08:53:00,13.5,-0.9,28.39,WNW,292,7.0,14.0,52,0.00,,,0.00,Weather View 32 v70,2013-01-23 13:53:00,
2013-01-23 08:58:00,13.5,-1.7,28.39,WNW,292,9.0,14.0,50,0.00,,,0.00,Weather View 32 v70,2013-01-23 13:58:00,
2013-01-23 09:03:00,13.8,-1.0,28.40,WNW,292,7.0,14.0,51,0.00,,,0.00,Weather View 32 v70,2013-01-23 14:03:00,
2013-01-23 09:08:00,14.2,-0.2,28.40,West,270,9.0,14.0,52,0.00,,,0.00,Weather View 32 v70,2013-01-23 14:08:00,
2013-01-23 09:13:00,14.3,-0.5,28.40,West,270,9.0,14.0,51,0.00,,,0.00,Weather View 32 v70,2013-01-23 14:13:00,
2013-01-23 09:18:00,14.4,-0.8,28.40,West,270,10.0,16.0,50,0.00,,,0.00,Weather View 32 v70,2013-01-23 14:18:00,
2013-01-23 09:23:00,14.7,-0.1,28.39,West,270,12.0,16.0,51,0.00,,,0.00,Weather View 32 v70,2013-01-23 14:23:00,
2013-01-23 09:28:00,14.8,-0.9,28.40,WNW,292,14.0,16.0,49,0.00,,,0.00,Weather View 32 v70,2013-01-23 14:28:00,
2013-01-23 09:33:00,14.7,-1.9,28.40,West,270,11.0,16.0,47,0.00,,,0.00,Weather View 32 v70,2013-01-23 14:33:00,
2013-01-23 09:38:00,14.9,-0.8,28.40,West,270,9.0,16.0,49,0.00,,,0.00,Weather View 32 v70,2013-01-23 14:38:00,
2013-01-23 09:43:00,15.2,-1.4,28.39,West,270,10.0,16.0,47,0.00,,,0.00,Weather View 32 v70,2013-01-23 14:43:00,
2013-01-23 09:48:00,15.5,-0.7,28.39,WSW,247,7.0,16.0,48,0.00,,,0.00,Weather View 32 v70,2013-01-23 14:48:00,
2013-01-23 09:53:00,15.7,-1.0,28.39,NW,315,6.0,16.0,47,0.00,,,0.00,Weather View 32 v70,2013-01-23 14:53:00,
2013-01-23 09:58:00,16.1,-1.0,28.39,West,270,11.0,16.0,46,0.00,,,0.00,Weather View 32 v70,2013-01-23 14:58:00,
2013-01-23 10:03:00,16.2,-0.9,28.40,West,270,9.0,16.0,46,0.00,,,0.00,Weather View 32 v70,2013-01-23 15:03:00,
2013-01-23 10:08:00,16.5,-0.7,28.39,WNW,292,12.0,16.0,46,0.00,,,0.00,Weather View 32 v70,2013-01-23 15:08:00,
2013-01-23 10:13:00,16.8,-0.4,28.39,WNW,292,11.0,16.0,46,0.00,,,0.00,Weather View 32 v70,2013-01-23 15:13:00,
2013-01-23 10:18:00,16.9,-1.7,28.39,NW,315,11.0,16.0,43,0.00,,,0.00,Weather View 32 v70,2013-01-23 15:18:00,
2013-01-23 10:23:00,17.0,-2.1,28.39,WNW,292,9.0,16.0,42,0.00,,,0.00,Weather View 32 v70,2013-01-23 15:23:00,
2013-01-23 10:28:00,17.2,-1.5,28.39,West,270,12.0,16.0,43,0.00,,,0.00,Weather View 32 v70,2013-01-23 15:28:00,
2013-01-23 10:33:00,17.3,-1.4,28.39,West,270,13.0,16.0,43,0.00,,,0.00,Weather View 32 v70,2013-01-23 15:33:00,
2013-01-23 10:38:00,17.7,-1.0,28.39,West,270,6.0,16.0,43,0.00,,,0.00,Weather View 32 v70,2013-01-23 15:38:00,
2013-01-23 10:43:00,18.0,-1.2,28.39,WSW,247,4.0,16.0,42,0.00,,,0.00,Weather View 32 v70,2013-01-23 15:43:00,
2013-01-23 10:48:00,18.0,-1.7,28.39,NW,315,2.0,16.0,41,0.00,,,0.00,Weather View 32 v70,2013-01-23 15:48:00,
2013-01-23 10:53:00,18.4,0.1,28.39,WNW,292,4.0,16.0,44,0.00,,,0.00,Weather View 32 v70,2013-01-23 15:53:00,
2013-01-23 10:58:00,18.9,-0.9,28.38,WNW,292,7.0,16.0,41,0.00,,,0.00,Weather View 32 v70,2013-01-23 15:58:00,
2013-01-23 11:03:00,19.1,-1.8,28.37,NW,315,10.0,16.0,39,0.00,,,0.00,Weather View 32 v70,2013-01-23 16:03:00,
2013-01-23 11:08:00,19.3,-1.1,28.38,NW,315,6.0,16.0,40,0.00,,,0.00,Weather View 32 v70,2013-01-23 16:08:00,
2013-01-23 11:13:00,19.5,0.6,28.37,WSW,247,9.0,16.0,43,0.00,,,0.00,Weather View 32 v70,2013-01-23 16:13:00,
2013-01-23 11:18:00,19.6,-0.8,28.37,ESE,112,2.0,16.0,40,0.00,,,0.00,Weather View 32 v70,2013-01-23 16:18:00,
2013-01-23 11:23:00,19.9,1.0,28.36,SW,225,9.0,16.0,43,0.00,,,0.00,Weather View 32 v70,2013-01-23 16:23:00,
2013-01-23 11:28:00,19.3,-1.6,28.36,SSE,157,6.0,16.0,39,0.00,,,0.00,Weather View 32 v70,2013-01-23 16:28:00,
2013-01-23 11:33:00,19.9,-0.5,28.36,SSW,202,3.0,16.0,40,0.00,,,0.00,Weather View 32 v70,2013-01-23 16:33:00,
2013-01-23 11:38:00,20.3,-1.3,28.36,South,180,4.0,16.0,38,0.00,,,0.00,Weather View 32 v70,2013-01-23 16:38:00,
2013-01-23 11:43:00,20.5,-1.1,28.36,South,180,6.0,16.0,38,0.00,,,0.00,Weather View 32 v70,2013-01-23 16:43:00,
2013-01-23 11:48:00,20.7,-2.0,28.36,SSW,202,1.0,16.0,36,0.00,,,0.00,Weather View 32 v70,2013-01-23 16:48:00,
2013-01-23 11:53:00,21.5,-0.2,28.35,SW,225,5.0,16.0,38,0.00,,,0.00,Weather View 32 v70,2013-01-23 16:53:00,
2013-01-23 11:58:00,21.6,-1.2,28.34,SW,225,3.0,16.0,36,0.00,,,0.00,Weather View 32 v70,2013-01-23 16:58:00,
2013-01-23 12:03:00,22.3,-0.6,28.33,South,180,1.0,16.0,36,0.00,,,0.00,Weather View 32 v70,2013-01-23 17:03:00,
2013-01-23 12:08:00,22.3,-0.6,28.33,SSE,157,4.0,16.0,36,0.00,,,0.00,Weather View 32 v70,2013-01-23 17:08:00,
2013-01-23 12:13:00,22.5,-0.4,28.33,SE,135,6.0,16.0,36,0.00,,,0.00,Weather View 32 v70,2013-01-23 17:13:00,
2013-01-23 12:18:00,21.8,-1.1,28.32,SE,135,4.0,16.0,36,0.00,,,0.00,Weather View 32 v70,2013-01-23 17:18:00,
2013-01-23 12:23:00,22.1,-0.8,28.32,SW,225,2.0,16.0,36,0.00,,,0.00,Weather View 32 v70,2013-01-23 17:23:00,
2013-01-23 12:28:00,22.1,-1.4,28.32,SW,225,3.0,10.0,35,0.00,,,0.00,Weather View 32 v70,2013-01-23 17:28:00,
2013-01-23 12:33:00,21.9,-1.0,28.31,South,180,9.0,10.0,36,0.00,,,0.00,Weather View 32 v70,2013-01-23 17:33:00,
2013-01-23 12:38:00,21.9,-1.0,28.31,SE,135,2.0,11.0,36,0.00,,,0.00,Weather View 32 v70,2013-01-23 17:38:00,
2013-01-23 12:43:00,21.7,-2.4,28.31,South,180,3.0,11.0,34,0.00,,,0.00,Weather View 32 v70,2013-01-23 17:43:00,
2013-01-23 12:48:00,21.9,-2.2,28.30,ESE,112,1.0,11.0,34,0.00,,,0.00,Weather View 32 v70,2013-01-23 17:48:00,
2013-01-23 12:53:00,22.2,-0.7,28.29,WSW,247,4.0,11.0,36,0.00,,,0.00,Weather View 32 v70,2013-01-23 17:53:00,
2013-01-23 12:58:00,22.4,-1.7,28.29,SSE,157,4.0,11.0,34,0.00,,,0.00,Weather View 32 v70,2013-01-23 17:58:00,
2013-01-23 13:03:00,22.4,-1.1,28.29,SE,135,4.0,11.0,35,0.00,,,0.00,Weather View 32 v70,2013-01-23 18:03:00,
2013-01-23 13:08:00,22.5,-1.6,28.29,SW,225,4.0,11.0,34,0.00,,,0.00,Weather View 32 v70,2013-01-23 18:08:00,
2013-01-23 13:13:00,22.7,-1.5,28.28,SSE,157,8.0,11.0,34,0.00,,,0.00,Weather View 32 v70,2013-01-23 18:13:00,
2013-01-23 13:18:00,22.7,-1.5,28.29,WSW,247,2.0,11.0,34,0.00,,,0.00,Weather View 32 v70,2013-01-23 18:18:00,
2013-01-23 13:23:00,22.9,-0.7,28.29,SW,225,1.0,11.0,35,0.00,,,0.00,Weather View 32 v70,2013-01-23 18:23:00,
2013-01-23 13:28:00,23.5,0.5,28.28,SW,225,0.0,11.0,36,0.00,,,0.00,Weather View 32 v70,2013-01-23 18:28:00,
2013-01-23 13:33:00,24.2,0.5,28.28,South,180,1.0,11.0,35,0.00,,,0.00,Weather View 32 v70,2013-01-23 18:33:00,
2013-01-23 13:38:00,24.9,0.5,28.28,West,270,5.0,11.0,34,0.00,,,0.00,Weather View 32 v70,2013-01-23 18:38:00,
2013-01-23 13:43:00,25.2,0.8,28.28,West,270,3.0,11.0,34,0.00,,,0.00,Weather View 32 v70,2013-01-23 18:43:00,
2013-01-23 13:48:00,25.6,1.1,28.28,WNW,292,0.0,11.0,34,0.00,,,0.00,Weather View 32 v70,2013-01-23 18:48:00,
2013-01-23 13:53:00,25.9,0.1,28.28,South,180,2.0,11.0,32,0.00,,,0.00,Weather View 32 v70,2013-01-23 18:53:00,
2013-01-23 13:58:00,26.1,0.9,28.28,WNW,292,3.0,11.0,33,0.00,,,0.00,Weather View 32 v70,2013-01-23 18:58:00,
2013-01-23 14:03:00,25.4,-2.4,28.27,South,180,3.0,11.0,29,0.00,,,0.00,Weather View 32 v70,2013-01-23 19:03:00,
2013-01-23 14:08:00,25.7,-1.5,28.27,West,270,2.0,11.0,30,0.00,,,0.00,Weather View 32 v70,2013-01-23 19:08:00,
2013-01-23 14:13:00,25.7,-0.1,28.27,North,360,0.0,11.0,32,0.00,,,0.00,Weather View 32 v70,2013-01-23 19:13:00,
2013-01-23 14:18:00,26.1,0.9,28.27,West,270,2.0,6.0,33,0.00,,,0.00,Weather View 32 v70,2013-01-23 19:18:00,
2013-01-23 14:23:00,26.9,3.5,28.25,SW,225,2.0,6.0,36,0.00,,,0.00,Weather View 32 v70,2013-01-23 19:23:00,
2013-01-23 14:28:00,27.0,0.4,28.25,West,270,4.0,6.0,31,0.00,,,0.00,Weather View 32 v70,2013-01-23 19:28:00,
2013-01-23 14:33:00,26.3,-3.2,28.26,NW,315,8.0,8.0,27,0.00,,,0.00,Weather View 32 v70,2013-01-23 19:33:00,
2013-01-23 14:38:00,26.2,-1.7,28.26,NW,315,5.0,11.0,29,0.00,,,0.00,Weather View 32 v70,2013-01-23 19:38:00,
2013-01-23 14:43:00,26.1,-3.3,28.26,NW,315,6.0,11.0,27,0.00,,,0.00,Weather View 32 v70,2013-01-23 19:43:00,
2013-01-23 14:48:00,25.7,-2.9,28.26,NW,315,3.0,11.0,28,0.00,,,0.00,Weather View 32 v70,2013-01-23 19:48:00,
2013-01-23 14:53:00,25.6,-3.0,28.26,WNW,292,4.0,11.0,28,0.00,,,0.00,Weather View 32 v70,2013-01-23 19:53:00,
2013-01-23 14:58:00,25.5,-1.6,28.26,WNW,292,2.0,11.0,30,0.00,,,0.00,Weather View 32 v70,2013-01-23 19:58:00,
2013-01-23 15:04:00,25.5,-3.1,28.26,SSW,202,5.0,11.0,28,0.00,,,0.00,Weather View 32 v70,2013-01-23 20:04:00,
2013-01-23 15:09:00,25.5,-2.4,28.26,West,270,5.0,11.0,29,0.00,,,0.00,Weather View 32 v70,2013-01-23 20:09:00,
2013-01-23 15:14:00,25.6,-2.3,28.25,NW,315,14.0,14.0,29,0.00,,,0.00,Weather View 32 v70,2013-01-23 20:14:00,
2013-01-23 15:19:00,25.6,-2.3,28.25,West,270,6.0,14.0,29,0.00,,,0.00,Weather View 32 v70,2013-01-23 20:19:00,
2013-01-23 15:24:00,25.6,-2.3,28.25,WNW,292,11.0,15.0,29,0.00,,,0.00,Weather View 32 v70,2013-01-23 20:24:00,
2013-01-23 15:29:00,25.5,-2.4,28.25,WNW,292,9.0,15.0,29,0.00,,,0.00,Weather View 32 v70,2013-01-23 20:29:00,
2013-01-23 15:34:00,25.5,-1.6,28.25,SW,225,9.0,15.0,30,0.00,,,0.00,Weather View 32 v70,2013-01-23 20:34:00,
2013-01-23 15:39:00,25.7,-2.2,28.25,WNW,292,5.0,15.0,29,0.00,,,0.00,Weather View 32 v70,2013-01-23 20:39:00,
2013-01-23 15:44:00,25.7,-1.5,28.25,NW,315,9.0,15.0,30,0.00,,,0.00,Weather View 32 v70,2013-01-23 20:44:00,
2013-01-23 15:49:00,25.7,-2.2,28.25,WNW,292,6.0,15.0,29,0.00,,,0.00,Weather View 32 v70,2013-01-23 20:49:00,
2013-01-23 15:54:00,25.7,-2.2,28.24,West,270,8.0,15.0,29,0.00,,,0.00,Weather View 32 v70,2013-01-23 20:54:00,
2013-01-23 15:59:00,25.7,-2.9,28.24,WNW,292,9.0,15.0,28,0.00,,,0.00,Weather View 32 v70,2013-01-23 20:59:00,
2013-01-23 16:04:00,25.8,-1.4,28.24,West,270,7.0,15.0,30,0.00,,,0.00,Weather View 32 v70,2013-01-23 21:04:00,
2013-01-23 16:09:00,25.9,-1.3,28.24,West,270,6.0,15.0,30,0.00,,,0.00,Weather View 32 v70,2013-01-23 21:09:00,
2013-01-23 16:14:00,26.2,-1.0,28.24,West,270,4.0,15.0,30,0.00,,,0.00,Weather View 32 v70,2013-01-23 21:14:00,
2013-01-23 16:19:00,26.3,-1.7,28.25,NW,315,4.0,15.0,29,0.00,,,0.00,Weather View 32 v70,2013-01-23 21:19:00,
2013-01-23 16:24:00,26.1,-2.6,28.24,NW,315,9.0,14.0,28,0.00,,,0.00,Weather View 32 v70,2013-01-23 21:24:00,
2013-01-23 16:29:00,25.9,-2.0,28.24,West,270,4.0,14.0,29,0.00,,,0.00,Weather View 32 v70,2013-01-23 21:29:00,
2013-01-23 16:34:00,25.8,-0.7,28.25,West,270,4.0,14.0,31,0.00,,,0.00,Weather View 32 v70,2013-01-23 21:34:00,
2013-01-23 16:39:00,25.7,-0.1,28.25,SW,225,6.0,14.0,32,0.00,,,0.00,Weather View 32 v70,2013-01-23 21:39:00,
2013-01-23 16:44:00,25.6,-0.2,28.25,WNW,292,2.0,14.0,32,0.00,,,0.00,Weather View 32 v70,2013-01-23 21:44:00,
2013-01-23 16:49:00,25.5,0.4,28.25,West,270,9.0,14.0,33,0.00,,,0.00,Weather View 32 v70,2013-01-23 21:49:00,
2013-01-23 16:54:00,25.4,1.5,28.25,WNW,292,10.0,14.0,35,0.00,,,0.00,Weather View 32 v70,2013-01-23 21:54:00,
2013-01-23 16:59:00,25.4,0.9,28.25,WNW,292,4.0,14.0,34,0.00,,,0.00,Weather View 32 v70,2013-01-23 21:59:00,
2013-01-23 17:04:00,25.3,2.1,28.25,West,270,2.0,14.0,36,0.00,,,0.00,Weather View 32 v70,2013-01-23 22:04:00,
2013-01-23 17:09:00,25.2,2.6,28.25,West,270,6.0,14.0,37,0.00,,,0.00,Weather View 32 v70,2013-01-23 22:09:00,
2013-01-23 17:14:00,25.1,3.0,28.25,West,270,7.0,14.0,38,0.00,,,0.00,Weather View 32 v70,2013-01-23 22:14:00,
2013-01-23 17:19:00,25.0,3.0,28.25,West,270,7.0,14.0,38,0.00,,,0.00,Weather View 32 v70,2013-01-23 22:19:00,
2013-01-23 17:24:00,24.9,3.4,28.25,West,270,6.0,12.0,39,0.00,,,0.00,Weather View 32 v70,2013-01-23 22:24:00,
2013-01-23 17:29:00,24.9,3.4,28.25,West,270,4.0,12.0,39,0.00,,,0.00,Weather View 32 v70,2013-01-23 22:29:00,
2013-01-23 17:35:00,24.8,3.3,28.25,WNW,292,4.0,12.0,39,0.00,,,0.00,Weather View 32 v70,2013-01-23 22:35:00,
2013-01-23 17:40:00,24.7,3.3,28.25,WNW,292,6.0,12.0,39,0.00,,,0.00,Weather View 32 v70,2013-01-23 22:40:00,
2013-01-23 17:45:00,24.5,3.1,28.25,NW,315,5.0,12.0,39,0.00,,,0.00,Weather View 32 v70,2013-01-23 22:45:00,
2013-01-23 17:50:00,24.4,3.0,28.24,NW,315,4.0,12.0,39,0.00,,,0.00,Weather View 32 v70,2013-01-23 22:50:00,
2013-01-23 17:55:00,24.3,2.9,28.24,NW,315,2.0,12.0,39,0.00,,,0.00,Weather View 32 v70,2013-01-23 22:55:00,
2013-01-23 18:00:00,24.3,2.9,28.24,NW,315,1.0,11.0,39,0.00,,,0.00,Weather View 32 v70,2013-01-23 23:00:00,
2013-01-23 18:05:00,24.2,3.3,28.24,NW,315,1.0,11.0,40,0.00,,,0.00,Weather View 32 v70,2013-01-23 23:05:00,
2013-01-23 18:10:00,24.1,4.3,28.24,NW,315,2.0,11.0,42,0.00,,,0.00,Weather View 32 v70,2013-01-23 23:10:00,
2013-01-23 18:15:00,23.9,3.6,28.24,NW,315,2.0,11.0,41,0.00,,,0.00,Weather View 32 v70,2013-01-23 23:15:00,
2013-01-23 18:20:00,23.9,4.6,28.24,NW,315,1.0,10.0,43,0.00,,,0.00,Weather View 32 v70,2013-01-23 23:20:00,
2013-01-23 18:25:00,23.8,5.1,28.24,NW,315,1.0,8.0,44,0.00,,,0.00,Weather View 32 v70,2013-01-23 23:25:00,
2013-01-23 18:30:00,23.7,4.5,28.23,NW,315,3.0,8.0,43,0.00,,,0.00,Weather View 32 v70,2013-01-23 23:30:00,
2013-01-23 18:35:00,23.7,4.5,28.23,NW,315,2.0,7.0,43,0.00,,,0.00,Weather View 32 v70,2013-01-23 23:35:00,
2013-01-23 18:40:00,23.6,5.4,28.23,NW,315,2.0,7.0,45,0.00,,,0.00,Weather View 32 v70,2013-01-23 23:40:00,
2013-01-23 18:45:00,23.5,5.3,28.23,NW,315,1.0,7.0,45,0.00,,,0.00,Weather View 32 v70,2013-01-23 23:45:00,
2013-01-23 18:50:00,23.5,4.8,28.23,NW,315,0.0,7.0,44,0.00,,,0.00,Weather View 32 v70,2013-01-23 23:50:00,
2013-01-23 18:55:00,23.4,5.7,28.22,NW,315,0.0,6.0,46,0.00,,,0.00,Weather View 32 v70,2013-01-23 23:55:00,
2013-01-23 19:00:00,23.3,6.0,28.22,NW,315,0.0,4.0,47,0.00,,,0.00,Weather View 32 v70,2013-01-24 00:00:00,
2013-01-23 19:05:00,23.1,6.3,28.22,NW,315,1.0,4.0,48,0.00,,,0.00,Weather View 32 v70,2013-01-24 00:05:00,
2013-01-23 19:10:00,23.0,6.2,28.22,NW,315,0.0,4.0,48,0.00,,,0.00,Weather View 32 v70,2013-01-24 00:10:00,
2013-01-23 19:15:00,22.9,7.0,28.22,NW,315,0.0,3.0,50,0.00,,,0.00,Weather View 32 v70,2013-01-24 00:15:00,
2013-01-23 19:20:00,23.0,6.2,28.22,NW,315,0.0,3.0,48,0.00,,,0.00,Weather View 32 v70,2013-01-24 00:20:00,
2013-01-23 19:25:00,23.0,6.2,28.22,NW,315,0.0,3.0,48,0.00,,,0.00,Weather View 32 v70,2013-01-24 00:25:00,
2013-01-23 19:30:00,23.2,6.4,28.22,West,270,2.0,3.0,48,0.00,,,0.00,Weather View 32 v70,2013-01-24 00:30:00,
2013-01-23 19:35:00,23.3,7.0,28.22,West,270,3.0,4.0,49,0.00,,,0.00,Weather View 32 v70,2013-01-24 00:35:00,
2013-01-23 19:40:00,23.5,8.5,28.22,West,270,2.0,5.0,52,0.00,,,0.00,Weather View 32 v70,2013-01-24 00:40:00,
2013-01-23 19:45:00,23.7,7.8,28.22,WSW,247,3.0,5.0,50,0.00,,,0.00,Weather View 32 v70,2013-01-24 00:45:00,
2013-01-23 19:50:00,23.7,8.6,28.22,SSW,202,2.0,5.0,52,0.00,,,0.00,Weather View 32 v70,2013-01-24 00:50:00,
2013-01-23 19:55:00,23.7,9.5,28.22,SW,225,2.0,5.0,54,0.00,,,0.00,Weather View 32 v70,2013-01-24 00:55:00,
2013-01-23 20:00:00,23.7,9.1,28.22,SW,225,4.0,5.0,53,0.00,,,0.00,Weather View 32 v70,2013-01-24 01:00:00,
2013-01-23 20:05:00,23.7,10.3,28.22,SW,225,2.0,5.0,56,0.00,,,0.00,Weather View 32 v70,2013-01-24 01:05:00,
2013-01-23 20:11:00,23.8,9.6,28.22,SW,225,5.0,5.0,54,0.00,,,0.00,Weather View 32 v70,2013-01-24 01:11:00,
2013-01-23 20:16:00,23.8,9.6,28.22,West,270,2.0,7.0,54,0.00,,,0.00,Weather View 32 v70,2013-01-24 01:16:00,
2013-01-23 20:21:00,23.8,10.4,28.22,West,270,0.0,7.0,56,0.00,,,0.00,Weather View 32 v70,2013-01-24 01:21:00,
2013-01-23 20:26:00,23.7,10.3,28.22,West,270,3.0,7.0,56,0.00,,,0.00,Weather View 32 v70,2013-01-24 01:26:00,
2013-01-23 20:31:00,23.8,11.2,28.22,SSW,202,2.0,7.0,58,0.00,,,0.00,Weather View 32 v70,2013-01-24 01:31:00,
2013-01-23 20:36:00,23.7,11.1,28.22,West,270,2.0,7.0,58,0.00,,,0.00,Weather View 32 v70,2013-01-24 01:36:00,
2013-01-23 20:41:00,23.6,11.4,28.21,WSW,247,3.0,8.0,59,0.00,,,0.00,Weather View 32 v70,2013-01-24 01:41:00,
2013-01-23 20:46:00,23.6,12.1,28.21,SW,225,3.0,8.0,61,0.00,,,0.00,Weather View 32 v70,2013-01-24 01:46:00,
2013-01-23 20:51:00,23.5,12.4,28.21,SW,225,2.0,8.0,62,0.00,,,0.00,Weather View 32 v70,2013-01-24 01:51:00,
2013-01-23 20:56:00,23.4,12.7,28.21,SSW,202,4.0,8.0,63,0.00,,,0.00,Weather View 32 v70,2013-01-24 01:56:00,
2013-01-23 21:01:00,23.3,13.3,28.21,SW,225,2.0,8.0,65,0.00,,,0.00,Weather View 32 v70,2013-01-24 02:01:00,
2013-01-23 21:06:00,23.3,13.3,28.21,SW,225,2.0,8.0,65,0.00,,,0.00,Weather View 32 v70,2013-01-24 02:06:00,
2013-01-23 21:11:00,23.2,13.5,28.21,SW,225,2.0,8.0,66,0.00,,,0.00,Weather View 32 v70,2013-01-24 02:11:00,
2013-01-23 21:16:00,23.2,13.5,28.20,SW,225,1.0,8.0,66,0.00,,,0.00,Weather View 32 v70,2013-01-24 02:16:00,
2013-01-23 21:21:00,23.1,13.4,28.20,SW,225,1.0,8.0,66,0.00,,,0.00,Weather View 32 v70,2013-01-24 02:21:00,
2013-01-23 21:26:00,23.1,13.4,28.20,SW,225,2.0,8.0,66,0.00,,,0.00,Weather View 32 v70,2013-01-24 02:26:00,
2013-01-23 21:31:00,23.1,13.8,28.20,SW,225,1.0,8.0,67,0.00,,,0.00,Weather View 32 v70,2013-01-24 02:31:00,
2013-01-23 21:36:00,23.1,14.1,28.20,SW,225,2.0,8.0,68,0.00,,,0.00,Weather View 32 v70,2013-01-24 02:36:00,
2013-01-23 21:41:00,23.1,14.1,28.20,SW,225,4.0,8.0,68,0.00,,,0.00,Weather View 32 v70,2013-01-24 02:41:00,
2013-01-23 21:46:00,23.1,14.1,28.19,SW,225,2.0,8.0,68,0.00,,,0.00,Weather View 32 v70,2013-01-24 02:46:00,
2013-01-23 21:51:00,23.1,14.1,28.19,SW,225,2.0,8.0,68,0.00,,,0.00,Weather View 32 v70,2013-01-24 02:51:00,
2013-01-23 21:56:00,23.1,14.4,28.19,SW,225,3.0,6.0,69,0.00,,,0.00,Weather View 32 v70,2013-01-24 02:56:00,
2013-01-23 22:01:00,23.0,14.7,28.19,SW,225,3.0,6.0,70,0.00,,,0.00,Weather View 32 v70,2013-01-24 03:01:00,
2013-01-23 22:06:00,23.0,15.0,28.19,SW,225,4.0,6.0,71,0.00,,,0.00,Weather View 32 v70,2013-01-24 03:06:00,
2013-01-23 22:11:00,22.9,15.5,28.19,SW,225,4.0,6.0,73,0.00,,,0.00,Weather View 32 v70,2013-01-24 03:11:00,
2013-01-23 22:16:00,22.9,16.2,28.19,SW,225,1.0,6.0,75,0.00,,,0.00,Weather View 32 v70,2013-01-24 03:16:00,
2013-01-23 22:21:00,22.9,16.2,28.19,SW,225,2.0,6.0,75,0.00,,,0.00,Weather View 32 v70,2013-01-24 03:21:00,
2013-01-23 22:26:00,22.8,16.4,28.19,SW,225,1.0,6.0,76,0.00,,,0.00,Weather View 32 v70,2013-01-24 03:26:00,
2013-01-23 22:31:00,22.8,16.7,28.19,SW,225,1.0,6.0,77,0.00,,,0.00,Weather View 32 v70,2013-01-24 03:31:00,
2013-01-23 22:36:00,22.7,16.6,28.19,SW,225,1.0,6.0,77,0.00,,,0.00,Weather View 32 v70,2013-01-24 03:36:00,
2013-01-23 22:41:00,22.7,16.6,28.19,SW,225,2.0,6.0,77,0.00,,,0.00,Weather View 32 v70,2013-01-24 03:41:00,
2013-01-23 22:46:00,22.6,16.8,28.19,SW,225,1.0,6.0,78,0.00,,,0.00,Weather View 32 v70,2013-01-24 03:46:00,
2013-01-23 22:51:00,22.5,17.0,28.19,SW,225,1.0,6.0,79,0.00,,,0.00,Weather View 32 v70,2013-01-24 03:51:00,
2013-01-23 22:56:00,22.5,17.6,28.19,SSW,202,1.0,6.0,81,0.00,,,0.00,Weather View 32 v70,2013-01-24 03:56:00,
2013-01-23 23:01:00,22.4,18.0,28.19,SSW,202,1.0,4.0,83,0.00,,,0.00,Weather View 32 v70,2013-01-24 04:01:00,
2013-01-23 23:07:00,22.3,17.6,28.19,East,90,1.0,4.0,82,0.00,,,0.00,Weather View 32 v70,2013-01-24 04:07:00,
2013-01-23 23:12:00,21.8,16.0,28.19,NNE,22,2.0,5.0,78,0.00,,,0.00,Weather View 32 v70,2013-01-24 04:12:00,
2013-01-23 23:17:00,21.3,16.1,28.19,NE,45,2.0,6.0,80,0.00,,,0.00,Weather View 32 v70,2013-01-24 04:17:00,
2013-01-23 23:22:00,20.8,16.5,28.19,NNE,22,2.0,6.0,83,0.00,,,0.00,Weather View 32 v70,2013-01-24 04:22:00,
2013-01-23 23:27:00,20.5,16.7,28.19,NE,45,2.0,6.0,85,0.00,,,0.00,Weather View 32 v70,2013-01-24 04:27:00,
2013-01-23 23:32:00,20.2,17.0,28.19,NE,45,1.0,6.0,87,0.00,,,0.00,Weather View 32 v70,2013-01-24 04:32:00,
2013-01-23 23:37:00,19.9,17.2,28.19,NNE,22,2.0,6.0,89,0.00,,,0.00,Weather View 32 v70,2013-01-24 04:37:00,
2013-01-23 23:42:00,19.8,17.3,28.18,NE,45,2.0,6.0,90,0.00,,,0.00,Weather View 32 v70,2013-01-24 04:42:00,
2013-01-23 23:47:00,19.6,17.1,28.18,ENE,67,2.0,6.0,90,0.00,,,0.00,Weather View 32 v70,2013-01-24 04:47:00,
2013-01-23 23:52:00,19.5,17.6,28.18,NE,45,2.0,6.0,92,0.00,,,0.00,Weather View 32 v70,2013-01-24 04:52:00,
2013-01-23 23:57:00,19.5,17.8,28.17,NE,45,1.0,6.0,93,0.00,,,0.00,Weather View 32 v70,2013-01-24 04:57:00,